THOR ABLESTAR DEB, 467

Orbit data source: Space-Track

THOR ABLESTAR DEB, 467 is space debris in LEO originally from a launch on Thu, 29 Jun 1961 UTC launched from the Air Force Eastern Test Range (AFETR). Debris objects in space refer to the collection of defunct objects orbiting the Earth. Examples of debris include non-operational satellites, rocket bodies, and fragments generated from explosions, collisions, or faulty payload assembly.

Loading next visibility...
Identifier
467, 1961-015FD
Orbit
LEO
Country
Flag of USUS
Related business
Manufacturer
Unknown
Mission
Spacecraft
Bus & Motor
Unknown
Mass
Unknown
Launch date (UTC)
1961-06-29 (64 years ago)
Launch vehicle
Unknown
Launch site
Air Force Eastern Test Range (AFETR)
Object type
Payload
Rocket body
Debris
Shape & HBR
Unknown
Radar Cross Section
Small (<0.1 m²)

Expand to show TLE details & history
Last TLE update: 18 hours ago

TLE from 18 hours ago
0 THOR ABLESTAR DEB
1 00467U 61015FD  25260.28158278  .00000808  00000-0  10375-2 0  9990
2 00467  66.5596   3.9208 0240060 130.3356 231.8945 13.56337075243912
Epoch: 2025-09-17T06:45Z
TLE epoch observation values (Epoch: 2025-09-17T06:45:28.752Z)
Latitude
-0.00003°
Longitude
-93.90879°
Altitude
1,163.694 km
Speed
7.217 km/s
True Right ascension
00h 15m 40s
True Declination
0° 00' 00"
Sunlit
Object was in full shadow at epoch
Visualization orbit readout
Latitude
Unknown
Longitude
Unknown
Altitude
Unknown
Speed
Unknown
Apparent Right ascension
Unknown
Apparent Declination
Unknown
Sunlit
N/A
Visualization observer readout
Local Sidereal Time
17:39:08
Azimuth
Unknown
Elevation
Unknown
Doppler factor
Unknown
Orbital elements
Apogee altitude
1,225.739 km
Perigee altitude
869.221 km
Semi-major axis
7,425.617 km
Eccentricity
0.02401
Inclination
66.5596°
RAAN
3.9208°
Arg. of periapsis
130.3356°
True anomaly
229.76976°
Mean anomaly
231.8945°
Eccentric anomaly
230.82818°
Mean motion
3.39191 °/min
Orbital period
106.13 mins
BSTAR
0.0010375
Loading maneuver chart data...
Computing Atmospheric mass density...

Documentation

Showing up to 5 results
|